Location: Newark
(35.6799°N, 139.7636°E)
Time: 08:24:09
(UTC+00:00)

Courier 1B Rocket - Pass Details

Date: 13 December 2019
Orbit: 920 x 1202 km, 28.2° (Epoch: 27 January)

Event Time Altitude Azimuth Distance (km) Brightness Sun altitude
Exits shadow 19:22:11 23° 209° (SSW) 2,162 6.6 -27.6°
Maximum altitude 19:25:34 33° 165° (SSE) 1,703 6.4 -26.9°
Drops below altitude 10° 19:31:37 10° 103° (ESE) 2,806 8.4 -25.7°
Sets 19:34:28 0° 94° (E) 3,715 9.4 -25.1°
